Tracking 27405 objects as of 2-Jun-2023
HD Live streaming from Space Station
objects crossing your sky now

NOAA 16 DEB

Track NOAA 16 DEB now!
10-day predictions


NORAD ID: 41278
Int'l Code: 2000-055GE
Perigee: 735.1 km
Apogee: 786.4 km
Inclination: 98.9 °
Period: 99.9 minutes
Semi major axis: 7131 km
RCS: Unknown
Launch date: September 21, 2000
Source: United States (US)
Launch site: AIR FORCE WESTERN TEST RANGE (AFWTR)

Note: This is SATELLITE DEBRIS
Your satellite tracking list
Your tracking list is empty




NASA's NSSDC Master Catalog

Two Line Element Set (TLE):
1 41278U 00055GE  23152.31850777  .00017461  00000-0  53394-2 0  9998
2 41278  98.8512 290.8128 0036002  74.8493 285.6672 14.41476629387326
Source of the keplerian elements: AFSPC